Regional Weather Roundup
Issued by NWS

Home | Current Version | Previous Version | Text Only | Print | Product List | Glossary On
Versions: 1 2 3 4 5 6 7 8 9 10 11 12 13 14 15 16 17 18 19 20 21 22 23 24 25 26 27 28 29 30 31 32 33 34 35 36 37 38 39 40 41 42 43 44 45 46 47 48 49 50
000
ASMX46 KSGX 230404
RWRMX

MEXICAN WEATHER ROUNDUP
NATIONAL WEATHER SERVICE SAN DIEGO CA
900 PM PDT FRI SEP 22 2017

BAJA CALIFORNIA

CITY           SKY/WX    TMP DP  RH WIND       PRES   REMARKS
LA PAZ         CLEAR     81  68  65 S9        29.75R
MEXICALI       CLEAR     75  43  31 W7        29.69R
S.J. DEL CABO  PTCLDY    81  70  69 W5        29.75R
TIJUANA        PTCLDY    63  55  77 CALM      29.87R

NORTHWESTERN MEXICO

CITY           SKY/WX    TMP DP  RH WIND       PRES   REMARKS
CHIHUAHUA      MOCLDY    72  54  53 SE3       29.92R
CULIACAN       MOCLDY    77  73  88 NE5       29.72R
HERMOSILLO     CLEAR     82  55  39 S3        29.73R
JUAREZ         PTCLDY    84  46  26 SE10      29.83R
LOS MOCHIS       N/A    N/A N/A N/A MISG        N/A

NORTHEASTERN MEXICO

CITY           SKY/WX    TMP DP  RH WIND       PRES   REMARKS
MONCLOVA         N/A    N/A N/A N/A MISG        N/A
MONTERREY      MOCLDY    81  70  69 E12       29.87R
REYNOSA          N/A    N/A N/A N/A MISG        N/A
SALTILLO       CLEAR     68  54  60 NE6       30.08R
TORREON        PTCLDY    84  63  48 E17       29.89R
VICTORIA         N/A    N/A N/A N/A MISG        N/A

WESTERN MEXICO

CITY           SKY/WX    TMP DP  RH WIND       PRES   REMARKS
AGUASCALIENTES LGT RAIN  59  57  94 SW2       30.16R
COLIMA           N/A    N/A N/A N/A MISG        N/A
GUADALAJARA    CLOUDY    70  64  83 E5        30.04R
MAZATLAN       PTCLDY    77  75  94 CALM      29.72R
PTO. VALLARTA  CLOUDY    79  79 100 CALM      29.74R
TEPIC            N/A    N/A N/A N/A MISG        N/A
URUAPAN        RAIN      63  63 100 CALM      30.08R VSB 1
ZACATECAS      MOCLDY    64  52  63 SE12G23   30.15S

CENTRAL MEXICO

CITY           SKY/WX    TMP DP  RH WIND       PRES   REMARKS
CUERNAVACA       N/A    N/A N/A N/A MISG        N/A
LEON           CLOUDY    61  59  94 N8        30.18R
MEXICO CITY    MOCLDY    66  55  68 W5        30.22R
MORELIA        MOCLDY    63  63 100 CALM      30.11S
POZA RICA        N/A    N/A N/A N/A MISG        N/A
QUERETARO      MOCLDY    57  57 100 S5        30.20S
S. LUIS POTOSI PTCLDY    64  54  68 SE10      30.15S
TAMPICO        PTCLDY    82  75  78 CALM      29.85R
TOLUCA         MOCLDY    59  52  77 S7        30.27R
VERACRUZ       MOCLDY    79  77  94 W3        29.83S

SOUTHERN MEXICO

CITY           SKY/WX    TMP DP  RH WIND       PRES   REMARKS
ACAPULCO       MOCLDY    79  77  94 W6        29.81R
B. DE HUATULCO   N/A    N/A N/A N/A MISG        N/A
MINATITLAN     PTCLDY    84  81  89 N9        29.80R HX  98
PTO. ESCONDIDO   N/A    N/A N/A N/A MISG        N/A
TAPACHULA      MOCLDY    77  75  94 CALM      29.83R
TUX. GUTIERREZ MOCLDY    73  73 100 CALM      29.87R
VILLAHERMOSA   PTCLDY    81  77  89 NE7       29.82R

YUCATAN PENINSULA

CITY           SKY/WX    TMP DP  RH WIND       PRES   REMARKS
CAMPECHE         N/A    N/A N/A N/A MISG        N/A
CANCUN         MOCLDY    81  79  94 N2        29.86R
CHETUMAL       MOCLDY    84  75  74 E6        29.84R
C. DEL CARMEN  PTCLDY   N/A N/A N/A NE14      29.81R
COZUMEL        PTCLDY    82  77  83 CALM      29.84R
MERIDA         PTCLDY    79  75  89 E8        29.86R

$$





USA.gov is the U.S. government's official web portal to all federal, state and local government web resources and services.